This demonstration page uses our WeatherBlox Daily Observations layout. Learn more.

Left ArrowRight Arrow

39.08367, -84.50855

Hourly Observations for April 19, 2017

Temp ( °F °C ) Dew Point ( °F °C ) Humidity (%) Winds ( mph kmh ) Pressure ( in mb ) Visibility ( mi km ) Precip ( " mm )
12:53 am 00:53 Cloudy 65 18.3 62 16.7 90 90 SSW 7 11 30.13 1020 10 16.0934 0 0
1:53 am 01:53 Cloudy 64 17.8 62 16.7 93 93 SSW 5 7 30.14 1021 10 16.0934 0 0
2:53 am 02:53 Clear 61 16.1 60 15.6 97 97 SSW 6 9 30.12 1020 10 16.0934 0 0
3:14 am 03:14 Mostly Cloudy 63 17 61 16 94 94 SSW 5 7 30.09 1019 10 16.0934 0 0
3:53 am 03:53 Mostly Cloudy 63 17.2 61 16.1 93 93 S 7 11 30.11 1020 10 16.0934 0 0
4:53 am 04:53 Cloudy 62 16.7 61 16.1 96 96 SSW 6 9 30.13 1020 10 16.0934 0 0
5:53 am 05:53 Cloudy 63 17.2 61 16.1 93 93 S 7 11 30.12 1020 10 16.0934 0 0
6:53 am 06:53 Mostly Cloudy 62 16.7 61 16.1 96 96 SW 5 7 30.13 1020 10 16.0934 0 0
7:53 am 07:53 Mostly Cloudy 64 17.8 62 16.7 93 93 S 7 11 30.14 1021 10 16.0934 0 0
8:53 am 08:53 Cloudy 65 18.3 63 17.2 93 93 S 6 9 30.15 1021 10 16.0934 0 0
9:53 am 09:53 Cloudy 66 18.9 64 17.8 93 93 S 7 11 30.15 1021 10 16.0934 0 0
10:25 am 10:25 Cloudy 68 20 64 17.8 87 87 SSW 9 15 30.12 1020 10 16.0934 0 0
10:53 am 10:53 Cloudy 68 20 65 18.3 90 90 SSW 10 17 30.15 1021 9 14.48406 0 0
11:53 am 11:53 Mostly Cloudy 72 22.2 66 18.9 82 82 SW 9 15 30.14 1021 10 16.0934 0 0
12:53 pm 12:53 Mostly Cloudy 75 23.9 66 18.9 74 74 SW 10 17 30.12 1020 10 16.0934 0 0
1:53 pm 13:53 Mostly Cloudy 77 25 66 18.9 69 69 SW 13 20 30.1 1019 10 16.0934 0 0
2:53 pm 14:53 Mostly Cloudy 77 25 64 17.8 64 64 WSW 14 22 30.09 1019 10 16.0934 0 0
3:53 pm 15:53 Mostly Cloudy 78 25.6 63 17.2 60 60 WSW 14 22 30.07 1018 10 16.0934 0 0
4:53 pm 16:53 Mostly Sunny 79 26.1 65 18.3 62 62 SW 12 19 30.05 1018 10 16.0934 0 0
5:53 pm 17:53 Mostly Sunny 78 25.6 62 16.7 58 58 SW 12 19 30.05 1018 10 16.0934 0 0
6:53 pm 18:53 Mostly Sunny 76 24.4 64 17.8 67 67 SSW 8 13 30.06 1018 10 16.0934 0 0
7:53 pm 19:53 Sunny 74 23.3 62 16.7 67 67 SSW 5 7 30.07 1018 10 16.0934 0 0
8:53 pm 20:53 Clear 67 19.4 64 17.8 91 91 Calm 30.07 1018 10 16.0934 0 0
9:53 pm 21:53 Clear 66 18.9 63 17.2 90 90 SSW 3 6 30.08 1019 10 16.0934 0 0
10:53 pm 22:53 Clear 64 17.8 62 16.7 93 93 Calm 30.08 1019 10 16.0934 0 0
11:53 pm 23:53 Clear 64 17.8 63 17.2 96 96 Calm 30.08 1019 10 16.0934 0 0

Powered by AerisWeather